Location: Athens-Covington-Pier
(33.9360°N, 83.4200°W)
Time: 10:43:47
(UTC-04:00)

OTV 5 (USA 277) - Visible Passes

Search period start: 19 October 2019 00:00
Search period end: 29 October 2019 00:00
Orbit: 310 x 324 km, 54.5° (Epoch: 17 October)

Date Brightness Start Highest point End Pass type
(mag) Time Alt. Az. Time Alt. Az. Time Alt. Az.
19 Oct ? 06:54:50 10° NNW 06:57:21 32° NE 06:59:51 10° ESE visible
20 Oct ? 07:09:12 10° NW 07:11:55 64° SW 07:14:35 10° SSE visible
21 Oct ? 05:52:34 19° NE 05:52:34 19° NE 05:54:12 10° E visible
22 Oct ? 06:07:29 40° ESE 06:07:29 40° ESE 06:09:27 10° SE visible
23 Oct ? 06:22:31 20° S 06:22:31 20° S 06:23:41 10° SSE visible
25 Oct ? 19:56:52 10° S 19:58:05 17° SSE 19:58:05 17° SSE visible
26 Oct ? 20:10:41 10° SW 20:12:59 59° SSW 20:12:59 59° SSW visible
27 Oct ? 20:25:33 10° WSW 20:27:43 27° NW 20:27:43 27° NW visible
28 Oct ? 20:41:44 10° WNW 20:42:19 11° NW 20:42:19 11° NW visible
